Time,TemperatureF,DewpointF,PressureIn,WindDirection,WindDirectionDegrees,WindSpeedMPH,WindSpeedGustMPH,Humidity,HourlyPrecipIn,Conditions,Clouds,dailyrainin,SolarRadiationWatts/m^2,SoftwareType,DateUTC
2013-02-09 00:21:00,20.0,13.0,-100.00,ENE,62,2.0,6.0,74,0.00,,,0.00,0.000000,,2013-02-09 07:21:00,
2013-02-09 00:31:00,20.0,13.0,-100.00,ENE,62,2.0,6.0,74,0.00,,,0.00,0.000000,,2013-02-09 07:31:00,
2013-02-09 00:42:00,20.0,13.0,-100.00,ENE,62,2.0,6.0,74,0.00,,,0.00,0.000000,,2013-02-09 07:42:00,
2013-02-09 00:51:00,20.0,13.0,-100.00,ENE,62,2.0,6.0,74,0.00,,,0.00,0.000000,,2013-02-09 07:51:00,
2013-02-09 01:21:00,19.0,12.0,-100.00,NNW,330,3.0,5.0,75,0.00,,,0.00,0.000000,,2013-02-09 08:21:00,
2013-02-09 01:31:00,19.0,12.0,-100.00,NNW,330,3.0,5.0,75,0.00,,,0.00,0.000000,,2013-02-09 08:31:00,
2013-02-09 01:42:00,19.0,12.0,-100.00,NNW,330,3.0,5.0,75,0.00,,,0.00,0.000000,,2013-02-09 08:42:00,
2013-02-09 01:52:00,19.0,12.0,-100.00,NNW,330,3.0,5.0,75,0.00,,,0.00,0.000000,,2013-02-09 08:52:00,
2013-02-09 02:21:00,17.0,13.0,-100.00,SE,139,3.0,6.0,85,0.00,,,0.00,0.000000,,2013-02-09 09:21:00,
2013-02-09 02:32:00,17.0,13.0,-100.00,SE,139,3.0,6.0,85,0.00,,,0.00,0.000000,,2013-02-09 09:32:00,
2013-02-09 02:42:00,17.0,13.0,-100.00,SE,139,3.0,6.0,85,0.00,,,0.00,0.000000,,2013-02-09 09:42:00,
2013-02-09 02:51:00,17.0,13.0,-100.00,SE,139,3.0,6.0,85,0.00,,,0.00,0.000000,,2013-02-09 09:51:00,
2013-02-09 03:21:00,21.0,14.0,-100.00,ESE,117,5.0,13.0,75,0.00,,,0.00,0.000000,,2013-02-09 10:21:00,
2013-02-09 03:32:00,21.0,14.0,-100.00,ESE,117,5.0,13.0,75,0.00,,,0.00,0.000000,,2013-02-09 10:32:00,
2013-02-09 03:42:00,21.0,14.0,-100.00,ESE,117,5.0,13.0,75,0.00,,,0.00,0.000000,,2013-02-09 10:42:00,
2013-02-09 03:51:00,21.0,14.0,-100.00,ESE,117,5.0,13.0,75,0.00,,,0.00,0.000000,,2013-02-09 10:51:00,
2013-02-09 04:22:00,15.0,11.0,-100.00,SE,141,2.0,7.0,83,0.00,,,0.00,0.000000,,2013-02-09 11:22:00,
2013-02-09 04:32:00,15.0,11.0,-100.00,SE,141,2.0,7.0,83,0.00,,,0.00,0.000000,,2013-02-09 11:32:00,
2013-02-09 04:41:00,15.0,11.0,-100.00,SE,141,2.0,7.0,83,0.00,,,0.00,0.000000,,2013-02-09 11:41:00,
2013-02-09 04:52:00,15.0,11.0,-100.00,SE,141,2.0,7.0,83,0.00,,,0.00,0.000000,,2013-02-09 11:52:00,
2013-02-09 05:21:00,9.0,6.0,-100.00,ESE,122,2.0,4.0,87,0.00,,,0.00,0.000000,,2013-02-09 12:21:00,
2013-02-09 06:22:00,3.0,-1.0,-100.00,North,349,2.0,4.0,81,-99.99,,,0.00,0.000000,,2013-02-09 13:22:00,
2013-02-09 06:32:00,3.0,-1.0,-100.00,North,349,2.0,4.0,81,-99.99,,,0.00,0.000000,,2013-02-09 13:32:00,
2013-02-09 07:21:00,2.0,-3.0,-100.00,NNE,28,2.0,4.0,79,-99.99,,,0.00,0.000000,,2013-02-09 14:21:00,
2013-02-09 07:32:00,2.0,-3.0,-100.00,NNE,28,2.0,4.0,79,-99.99,,,0.00,0.000000,,2013-02-09 14:32:00,
2013-02-09 08:21:00,9.0,4.0,-100.00,NNE,23,1.0,4.0,79,-99.99,,,0.00,34.000000,,2013-02-09 15:21:00,
2013-02-09 08:32:00,9.0,4.0,-100.00,NNE,23,1.0,4.0,79,-99.99,,,0.00,34.000000,,2013-02-09 15:32:00,
2013-02-09 09:22:00,22.0,16.0,-100.00,NNE,21,2.0,5.0,79,-99.99,,,0.00,232.000000,,2013-02-09 16:22:00,
2013-02-09 09:31:00,22.0,16.0,-100.00,NNE,21,2.0,5.0,79,-99.99,,,0.00,232.000000,,2013-02-09 16:31:00,
2013-02-09 09:42:00,22.0,16.0,-100.00,NNE,21,2.0,5.0,79,-99.99,,,0.00,232.000000,,2013-02-09 16:42:00,
2013-02-09 09:52:00,22.0,16.0,-100.00,NNE,21,2.0,5.0,79,-99.99,,,0.00,232.000000,,2013-02-09 16:52:00,
2013-02-09 10:21:00,36.0,13.0,-100.00,SE,135,4.0,9.0,38,0.00,,,0.00,449.000000,,2013-02-09 17:21:00,
2013-02-09 11:23:00,21.0,14.0,-100.00,SSE,155,7.0,20.0,75,-99.99,,,0.00,134.000000,,2013-02-09 18:23:00,
2013-02-09 11:32:00,21.0,14.0,-100.00,SSE,155,7.0,20.0,75,-99.99,,,0.00,134.000000,,2013-02-09 18:32:00,
2013-02-09 11:42:00,21.0,14.0,-100.00,SSE,155,7.0,20.0,75,-99.99,,,0.00,134.000000,,2013-02-09 18:42:00,
2013-02-09 11:51:00,21.0,14.0,-100.00,SSE,155,7.0,20.0,75,-99.99,,,0.00,134.000000,,2013-02-09 18:51:00,
2013-02-09 12:22:00,21.0,17.0,-100.00,SE,139,7.0,13.0,85,0.00,,,0.00,109.000000,,2013-02-09 19:22:00,
2013-02-09 12:32:00,21.0,17.0,-100.00,SE,139,7.0,13.0,85,0.00,,,0.00,109.000000,,2013-02-09 19:32:00,
2013-02-09 12:42:00,21.0,17.0,-100.00,SE,139,7.0,13.0,85,0.00,,,0.00,109.000000,,2013-02-09 19:42:00,
2013-02-09 12:52:00,21.0,17.0,-100.00,SE,139,7.0,13.0,85,0.00,,,0.00,109.000000,,2013-02-09 19:52:00,
2013-02-09 13:21:00,22.0,17.0,-100.00,SE,145,5.0,10.0,82,0.00,,,-99.99,164.000000,,2013-02-09 20:21:00,
2013-02-09 13:32:00,22.0,17.0,-100.00,SE,145,5.0,10.0,82,0.00,,,-99.99,164.000000,,2013-02-09 20:32:00,
2013-02-09 13:42:00,22.0,17.0,-100.00,SE,145,5.0,10.0,82,0.00,,,-99.99,164.000000,,2013-02-09 20:42:00,
2013-02-09 13:52:00,22.0,17.0,-100.00,SE,145,5.0,10.0,82,0.00,,,-99.99,164.000000,,2013-02-09 20:52:00,
2013-02-09 14:21:00,24.0,18.0,-100.00,SSE,160,5.0,8.0,78,0.00,,,0.00,220.000000,,2013-02-09 21:21:00,
2013-02-09 14:32:00,24.0,18.0,-100.00,SSE,160,5.0,8.0,78,0.00,,,0.00,220.000000,,2013-02-09 21:32:00,
2013-02-09 14:42:00,24.0,18.0,-100.00,SSE,160,5.0,8.0,78,0.00,,,0.00,220.000000,,2013-02-09 21:42:00,
2013-02-09 14:52:00,24.0,18.0,-100.00,SSE,160,5.0,8.0,78,0.00,,,0.00,220.000000,,2013-02-09 21:52:00,
2013-02-09 15:21:00,22.0,15.0,-100.00,SSW,206,5.0,9.0,73,0.00,,,0.00,208.000000,,2013-02-09 22:21:00,
2013-02-09 15:32:00,22.0,15.0,-100.00,SSW,206,5.0,9.0,73,0.00,,,0.00,208.000000,,2013-02-09 22:32:00,
2013-02-09 15:42:00,22.0,15.0,-100.00,SSW,206,5.0,9.0,73,0.00,,,0.00,208.000000,,2013-02-09 22:42:00,
2013-02-09 15:51:00,22.0,15.0,-100.00,SSW,206,5.0,9.0,73,0.00,,,0.00,208.000000,,2013-02-09 22:51:00,
2013-02-09 16:21:00,22.0,17.0,-100.00,SSE,161,4.0,8.0,80,0.00,,,0.00,107.000000,,2013-02-09 23:21:00,
2013-02-09 16:32:00,22.0,17.0,-100.00,SSE,161,4.0,8.0,80,0.00,,,0.00,107.000000,,2013-02-09 23:32:00,
2013-02-09 16:42:00,22.0,17.0,-100.00,SSE,161,4.0,8.0,80,0.00,,,0.00,107.000000,,2013-02-09 23:42:00,
2013-02-09 16:52:00,22.0,17.0,-100.00,SSE,161,4.0,8.0,80,0.00,,,0.00,107.000000,,2013-02-09 23:52:00,
2013-02-09 17:22:00,20.0,15.0,-100.00,SE,144,4.0,7.0,79,0.00,,,0.00,92.000000,,2013-02-10 00:22:00,
2013-02-09 17:32:00,20.0,15.0,-100.00,SE,144,4.0,7.0,79,0.00,,,0.00,92.000000,,2013-02-10 00:32:00,
2013-02-09 17:42:00,20.0,15.0,-100.00,SE,144,4.0,7.0,79,0.00,,,0.00,92.000000,,2013-02-10 00:42:00,
2013-02-09 17:51:00,20.0,15.0,-100.00,SE,144,4.0,7.0,79,0.00,,,0.00,92.000000,,2013-02-10 00:51:00,
2013-02-09 18:21:00,18.0,15.0,-100.00,NNE,27,2.0,4.0,87,0.00,,,0.00,14.000000,,2013-02-10 01:21:00,
2013-02-09 18:32:00,18.0,15.0,-100.00,NNE,27,2.0,4.0,87,0.00,,,0.00,14.000000,,2013-02-10 01:32:00,
2013-02-09 18:42:00,18.0,15.0,-100.00,NNE,27,2.0,4.0,87,0.00,,,0.00,14.000000,,2013-02-10 01:42:00,
2013-02-09 18:51:00,18.0,15.0,-100.00,NNE,27,2.0,4.0,87,0.00,,,0.00,14.000000,,2013-02-10 01:51:00,
2013-02-09 19:22:00,17.0,15.0,-100.00,East,85,1.0,5.0,90,0.00,,,0.00,0.000000,,2013-02-10 02:22:00,
2013-02-09 19:32:00,17.0,15.0,-100.00,East,85,1.0,5.0,90,0.00,,,0.00,0.000000,,2013-02-10 02:32:00,
2013-02-09 19:42:00,17.0,15.0,-100.00,East,85,1.0,5.0,90,0.00,,,0.00,0.000000,,2013-02-10 02:42:00,
2013-02-09 19:52:00,17.0,15.0,-100.00,East,85,1.0,5.0,90,0.00,,,0.00,0.000000,,2013-02-10 02:52:00,
2013-02-09 20:21:00,16.0,12.0,-100.00,South,179,4.0,7.0,84,0.00,,,0.00,0.000000,,2013-02-10 03:21:00,
2013-02-09 20:32:00,16.0,12.0,-100.00,South,179,4.0,7.0,84,0.00,,,0.00,0.000000,,2013-02-10 03:32:00,
2013-02-09 20:42:00,16.0,12.0,-100.00,South,179,4.0,7.0,84,0.00,,,0.00,0.000000,,2013-02-10 03:42:00,
2013-02-09 20:51:00,16.0,12.0,-100.00,South,179,4.0,7.0,84,0.00,,,0.00,0.000000,,2013-02-10 03:51:00,
2013-02-09 21:21:00,15.0,10.0,-100.00,South,171,5.0,10.0,80,0.00,,,0.00,0.000000,,2013-02-10 04:21:00,
2013-02-09 21:32:00,15.0,10.0,-100.00,South,171,5.0,10.0,80,0.00,,,0.00,0.000000,,2013-02-10 04:32:00,
2013-02-09 21:42:00,15.0,10.0,-100.00,South,171,5.0,10.0,80,0.00,,,0.00,0.000000,,2013-02-10 04:42:00,
2013-02-09 21:51:00,15.0,10.0,-100.00,South,171,5.0,10.0,80,0.00,,,0.00,0.000000,,2013-02-10 04:51:00,
2013-02-09 22:22:00,15.0,10.0,-100.00,South,184,5.0,10.0,80,0.00,,,0.00,0.000000,,2013-02-10 05:22:00,
2013-02-09 22:31:00,15.0,10.0,-100.00,South,184,5.0,10.0,80,0.00,,,0.00,0.000000,,2013-02-10 05:31:00,
2013-02-09 22:41:00,15.0,10.0,-100.00,South,184,5.0,10.0,80,0.00,,,0.00,0.000000,,2013-02-10 05:41:00,
2013-02-09 22:52:00,15.0,10.0,-100.00,South,184,5.0,10.0,80,0.00,,,0.00,0.000000,,2013-02-10 05:52:00,
2013-02-09 23:21:00,13.0,9.0,-100.00,South,191,8.0,12.0,83,0.00,,,0.00,0.000000,,2013-02-10 06:21:00,
2013-02-09 23:32:00,13.0,9.0,-100.00,South,191,8.0,12.0,83,0.00,,,0.00,0.000000,,2013-02-10 06:32:00,
2013-02-09 23:42:00,13.0,9.0,-100.00,South,191,8.0,12.0,83,0.00,,,0.00,0.000000,,2013-02-10 06:42:00,
2013-02-09 23:51:00,13.0,9.0,-100.00,South,191,8.0,12.0,83,0.00,,,0.00,0.000000,,2013-02-10 06:51:00,